Погода в Байчурове

Россия / Воронежская область     51°20′32″N   42°41′09″E
темп.,
°C
ветер,
м/с
пор.,
м/с
влажн.,
%
обл.,
%
осадки,
мм/ч
давл.,
гПа
погр.,
м
27 сентября, пн
пн2700:00+9сз71290100 0.1 1006786
03:00+9сз61094100 1.6 1007697
06:00+9ссз61291100 0.7 1008595
09:00+10ссз61091100 0.9 1010648
12:00+10с6108887 0.1 1012697
15:00+13с787098 0.5 10131134
18:00+10ссз5108598 0.0 1015435
21:00+8ссз389248 0.0 1016192
28 сентября, вт
вт2800:00+8ссз369498 0.0 1017150
03:00+9с3791100 0.1 1018370
06:00+7ссв378998 0.0 1019331
09:00+8ссв4683100 0.0 1021521
12:00+10всв5571100 0.1 10221031
15:00+7всв5683100 0.1 1024835
18:00+7св4774100 0.0 1026770
21:00+7св4766100 0.0 1028573
29 сентября, ср
ср2900:00+7св345576 0.0 102994
03:00+3ссв35805 0.0 1030105
06:00+2ссв3882100 0.0 1031177
09:00+6ссв5762100 0.0 1031674
12:00+9св5646100 0.0 10311371
15:00+10св56425 0.0 10301568
18:00+7ссв36565 0.0 1031107
21:00+5ссв38655 0.0 1032145
30 сентября, чт
чт3000:00+4св36695 0.0 1033104
03:00+3св34735 0.0 103357
06:00+2св33750 0.0 103443
09:00+7св34563 0.0 1035381
12:00+11св34435 0.0 10341404
15:00+12ссв33395 0.0 10341658
18:00+8ссв22545 0.0 103418
21:00+6св22615 0.0 103514
1 октября, пт
пт100:00+5св22675 0.0 103612
03:00+4ссв22715 0.0 103612
06:00+4с22755 0.0 103610
09:00+8с23585 0.0 1036330
12:00+12с334623 0.0 10361261
15:00+12с334759 0.0 10351119
18:00+9с33615 0.0 103526
21:00+8с116516 0.0 103510